Location: Byszew
(52.1813°N, 19.2693°E)
Time: 05:13:28
(UTC+00:00)

Envisat - Pass Details

Date: 01 February 2022
Orbit: 764 x 765 km, 98.2° (Epoch: 25 May)

Event Time Altitude Azimuth Distance (km) Brightness Sun altitude
Rises 02:12:52 0° 27° (NNE) 3,244 6.8 -38.1°
Reaches altitude 10° 02:16:10 10° 50° (NE) 2,312 6.1 -37.6°
Maximum altitude 02:19:09 16° 86° (E) 1,951 5.7 -37.2°
Drops below altitude 10° 02:22:08 10° 122° (ESE) 2,303 5.8 -36.7°
Sets 02:25:24 0° 145° (SE) 3,223 6.4 -36.3°
